Regional Weather Roundup
Issued by NWS

Current Version | Previous Version | Text Only | Print | Product List | Glossary On
Versions: 1 2 3 4 5 6 7 8 9 10 11 12 13 14 15 16 17 18 19 20 21 22 23 24 25 26 27 28 29 30 31 32 33 34 35 36 37 38 39 40 41 42 43 44 45 46 47 48 49 50
000
ASUS44 KBMX 061110
RWRAL

ALABAMA REGIONAL WEATHER ROUNDUP
NATIONAL WEATHER SERVICE BIRMINGHAM AL
600 AM CDT WED MAY 06 2015

NOTE: "FAIR" INDICATES FEW OR NO CLOUDS BELOW 12,000 FEET
WITH NO SIGNIFICANT WEATHER AND/OR OBSTRUCTIONS TO VISIBILITY.

THE REMARK "TC" DENOTES TEMPERATURE IN DEGREES CELSIUS.

ALZ001>011-014-016>018-020-061200-
NORTH ALABAMA

CITY           SKY/WX    TMP DP  RH WIND       PRES   REMARKS
MUSCLE SHOALS  CLEAR     55  52  89 CALM      30.19R
HUNTSVILLE     CLEAR     59  55  87 E3        30.19R
DECATUR        CLEAR     56  55  97 CALM      30.19S
HALEYVILLE       N/A     51  51 100 MISG      30.21S FOG
GADSDEN        CLEAR    N/A N/A N/A CALM      30.19S
$$

ALZ012-013-022-023-030>036-040>044-061200-
WEST CENTRAL ALABAMA

CITY           SKY/WX    TMP DP  RH WIND       PRES   REMARKS
TUSCALOOSA     CLEAR     56  53  90 CALM      30.16R
$$

ALZ015-024>027-033>036-040>044-061200-
CENTRAL ALABAMA

CITY           SKY/WX    TMP DP  RH WIND       PRES   REMARKS
BIRMINGHAM     CLEAR     59  53  80 CALM      30.20R
MONTGOMERY     CLEAR     60  54  80 E5        30.16R
SHELBY CO ARPT CLEAR     60  53  77 CALM      30.18R
MAXWELL AFB    CLEAR     59  56  90 N2        30.16R
GREENVILLE     FAIR      60  54  80 CALM      30.14S
$$

ALZ019-021-028-029-037-038-045>048-061200-
EAST CENTRAL ALABAMA

CITY           SKY/WX    TMP DP  RH WIND       PRES   REMARKS
ANNISTON       CLEAR     56  52  86 NE3       30.20S
ALEXANDER CITY PTCLDY    57  52  83 CALM      30.19R
AUBURN         CLEAR     57  48  72 NE5       30.19S
$$

ALZ051>064-061200-
SOUTHWEST ALABAMA

CITY           SKY/WX    TMP DP  RH WIND       PRES   REMARKS
MOBILE         PTCLDY    63  61  93 NE6       30.10R
BROOKLEY FIELD CLEAR     65  62  90 NE7       30.11R
EVERGREEN      CLEAR     54  52  93 CALM      30.14R
$$

ALZ049-050-065>069-061200-
SOUTHEAST ALABAMA

CITY           SKY/WX    TMP DP  RH WIND       PRES   REMARKS
DOTHAN         CLEAR     59  57  93 CALM      30.18S
OZARK          CLEAR     60  58  92 NE7       30.13F
TROY           CLEAR     58  55  90 NE3       30.16R
EUFAULA        FAIR      56  54  93 CALM      30.16R
$$


USA.gov is the U.S. government's official web portal to all federal, state and local government web resources and services.